EW9826 Weather Reports


time (UTC)temp
C
wind
direction
speed
KPH
gust
KPH
rain 1hr
cm
rain 24hr
cm
rain mn
cm
humidity
%
barometer
mb
20260507085504 12 351 4.8 12.9 0.00 0.00 0.00 62 1016.1
20260507085005 12 3 4.8 9.7 0.00 0.00 0.00 63 1016.0
20260507084008 12 3 4.8 11.3 0.00 0.00 0.00 62 1016.0
20260507083508 12 3 4.8 9.7 0.00 0.00 0.00 63 1016.0
20260507082009 12 3 3.2 4.8 0.00 0.00 0.00 65 1016.2
20260507081508 12 4 4.8 9.7 0.00 0.00 0.00 67 1016.1
20260507081008 12 5 8.0 14.5 0.00 0.00 0.00 66 1016.0
20260507080008 12 4 3.2 9.7 0.00 0.00 0.00 67 1016.1
20260507075508 11 0 4.8 9.7 0.00 0.00 0.00 68 1016.0
20260507074008 11 0 3.2 11.3 0.00 0.00 0.00 70 1015.9
20260507073508 11 0 4.8 11.3 0.00 0.00 0.00 70 1015.9
20260507073008 11 0 8.0 12.9 0.00 0.00 0.00 70 1015.8
20260507072508 11 355 4.8 12.9 0.00 0.00 0.00 70 1015.8
20260507072009 11 355 8.0 11.3 0.00 0.00 0.00 70 1015.8
20260507062008 9 3 4.8 8.0 0.00 0.00 0.00 78 1015.8
20260507061508 9 4 4.8 8.0 0.00 0.00 0.00 79 1015.8
20260507054508 8 4 8.0 11.3 0.00 0.00 0.00 85 1015.4
20260507054008 8 3 4.8 9.7 0.00 0.00 0.00 86 1015.3
20260507052508 7 4 0.0 0.0 0.00 0.00 0.00 88 1015.3
20260507052008 7 3 0.0 0.0 0.00 0.00 0.00 89 1015.3
20260507051507 7 3 0.0 0.0 0.00 0.00 0.00 89 1015.2
20260507051008 6 4 0.0 3.2 0.00 0.00 0.00 89 1015.2
20260507044007 6 4 1.6 4.8 0.00 0.00 0.00 88 1014.8
20260507043507 6 4 1.6 4.8 0.00 0.00 0.00 88 1014.8
20260507043008 6 3 1.6 3.2 0.00 0.00 0.00 88 1014.8
20260507042508 6 3 1.6 3.2 0.00 0.00 0.00 88 1014.7
20260507042008 6 3 1.6 3.2 0.00 0.00 0.00 87 1014.7
20260507035508 7 4 1.6 3.2 0.00 0.00 0.00 87 1014.6
20260507035007 7 2 1.6 4.8 0.00 0.00 0.00 86 1014.6
20260507034508 7 3 1.6 3.2 0.00 0.00 0.00 86 1014.6
20260507033007 7 4 1.6 4.8 0.00 0.00 0.00 86 1014.4
20260507032507 7 3 3.2 4.8 0.00 0.00 0.00 86 1014.4
20260507025007 7 4 0.0 4.8 0.00 0.00 0.00 85 1014.2
20260507020007 7 4 1.6 3.2 0.00 0.00 0.00 84 1014.0
20260507015507 7 3 1.6 4.8 0.00 0.00 0.00 84 1013.9
20260507015007 7 3 1.6 4.8 0.00 0.00 0.00 84 1013.8
20260507014507 7 4 3.2 4.8 0.00 0.00 0.00 84 1013.8
20260507014007 7 3 1.6 4.8 0.00 0.00 0.00 84 1013.8
20260507013507 7 3 1.6 4.8 0.00 0.00 0.00 84 1013.8
20260507013007 7 3 1.6 9.7 0.00 0.00 0.00 84 1013.8
20260507012507 7 3 3.2 8.0 0.00 0.00 0.00 84 1013.8
20260507012007 7 4 3.2 4.8 0.00 0.00 0.00 84 1013.8
20260507011507 7 3 3.2 4.8 0.00 0.00 0.00 84 1013.7
20260507010007 7 3 1.6 4.8 0.00 0.00 0.00 84 1013.7
20260507005507 7 3 3.2 8.0 0.00 0.00 0.00 85 1013.7
20260507005007 7 3 3.2 4.8 0.00 0.00 0.00 85 1013.7
20260507002007 8 4 3.2 8.0 0.00 0.00 0.00 84 1013.7
20260507001507 8 3 3.2 9.7 0.00 0.00 0.00 85 1013.7
20260507001008 8 4 1.6 9.7 0.00 0.00 0.00 85 1013.7
20260507000007 8 3 3.2 9.7 0.00 0.00 0.00 85 1013.6
20260506235506 8 4 4.8 9.7 0.00 0.00 0.00 84 1013.6
20260506235007 8 3 4.8 11.3 0.00 0.00 0.00 84 1013.6
20260506233007 8 355 4.8 11.3 0.00 0.00 0.00 84 1013.3
20260506232506 8 355 3.2 8.0 0.00 0.00 0.00 83 1013.4
20260506232007 8 355 4.8 9.7 0.00 0.00 0.00 83 1013.3
20260506231507 8 355 3.2 32.2 0.00 0.00 0.00 83 1013.4
20260506231006 8 355 3.2 9.7 0.00 0.00 0.00 83 1013.3
20260506225007 8 0 4.8 11.3 0.00 0.00 0.00 82 1013.3
20260506222507 9 0 4.8 12.9 0.00 0.00 0.00 79 1013.2
20260506222007 9 0 4.8 9.7 0.00 0.00 0.00 79 1013.2
20260506214006 10 4 4.8 11.3 0.00 0.00 0.00 75 1012.8
20260506213506 10 4 4.8 11.3 0.00 0.00 0.00 74 1012.8
20260506212007 10 0 11.3 14.5 0.00 0.00 0.00 72 1012.7
20260506210006 11 2 6.4 16.1 0.00 0.00 0.00 70 1012.7
20260506202007 11 24 4.8 11.3 0.00 0.00 0.00 68 1012.5
20260506201506 11 3 4.8 9.7 0.00 0.00 0.00 68 1012.4
20260506201006 11 3 4.8 12.9 0.00 0.00 0.00 67 1012.3
20260506200006 12 20 3.2 4.8 0.00 0.00 0.00 67 1012.2
20260506195506 12 22 3.2 9.7 0.00 0.00 0.00 67 1012.2
20260506192006 12 62 3.2 11.3 0.00 0.00 0.00 65 1011.7
20260506191505 12 69 3.2 8.0 0.00 0.00 0.00 64 1011.7
20260506191007 12 69 3.2 8.0 0.00 0.00 0.00 64 1011.7
20260506190006 12 71 3.2 11.3 0.00 0.00 0.00 64 1011.6
20260506182505 12 4 6.4 11.3 0.00 0.00 0.00 63 1011.1
20260506182006 13 37 4.8 9.7 0.00 0.00 0.00 63 1011.1
20260506181506 13 37 1.6 8.0 0.00 0.00 0.00 62 1011.0
20260506181006 13 37 1.6 9.7 0.00 0.00 0.00 62 1010.9
20260506175505 13 56 3.2 11.3 0.00 0.00 0.00 59 1010.6
20260506174006 13 60 4.8 8.0 0.00 0.00 0.00 55 1010.5
20260506173506 13 61 3.2 11.3 0.00 0.00 0.00 55 1010.4
20260506170005 13 53 6.4 12.9 0.00 0.00 0.00 52 1010.1
20260506165505 13 13 4.8 11.3 0.00 0.00 0.00 50 1010.1
20260506165006 13 344 4.8 11.3 0.00 0.00 0.00 50 1010.1
20260506153505 14 93 4.8 12.9 0.00 0.00 0.00 50 1010.0
20260506153005 15 95 3.2 9.7 0.00 0.00 0.00 48 1009.9
20260506152506 15 102 9.7 20.9 0.00 0.00 0.00 46 1009.9
20260506152006 15 82 3.2 11.3 0.00 0.00 0.00 45 1009.9
20260506151505 15 13 9.7 14.5 0.00 0.00 0.00 45 1009.9
20260506151006 15 16 8.0 20.9 0.00 0.00 0.00 45 1009.9
20260506145506 15 64 8.0 19.3 0.00 0.00 0.00 45 1009.7
20260506145006 15 82 8.0 20.9 0.00 0.00 0.00 44 1009.7
20260506144505 15 32 14.5 20.9 0.00 0.00 0.00 44 1009.7
20260506134005 15 56 9.7 20.9 0.00 0.00 0.00 47 1009.7
20260506133505 15 35 8.0 19.3 0.00 0.00 0.00 47 1009.6
20260506133005 15 15 8.0 14.5 0.00 0.00 0.00 48 1009.6
20260506132505 15 72 8.0 19.3 0.00 0.00 0.00 47 1009.6
20260506132005 15 64 9.7 19.3 0.00 0.00 0.00 46 1009.6
20260506131505 15 43 6.4 16.1 0.00 0.00 0.00 46 1009.6
20260506131005 15 71 8.0 19.3 0.00 0.00 0.00 47 1009.6
20260506130005 15 20 11.3 25.7 0.00 0.00 0.00 47 1009.6
20260506125504 15 65 9.7 16.1 0.00 0.00 0.00 47 1009.6
20260506124006 14 38 9.7 19.3 0.00 0.00 0.00 48 1009.6
20260506123505 14 7 11.3 19.3 0.00 0.00 0.00 49 1009.5
20260506123005 14 56 8.0 20.9 0.00 0.00 0.00 49 1009.4
20260506122504 14 15 9.7 16.1 0.00 0.00 0.00 50 1009.5
20260506122005 14 17 4.8 14.5 0.00 0.00 0.00 53 1009.5
20260506115004 15 354 9.7 24.1 0.00 0.00 0.00 53 1009.3
20260506114505 14 74 6.4 12.9 0.00 0.00 0.00 53 1009.4
20260506114005 14 13 8.0 19.3 0.00 0.00 0.00 50 1009.5
20260506113505 14 19 8.0 16.1 0.00 0.00 0.00 51 1009.5
20260506110005 13 347 8.0 12.9 0.00 0.00 0.00 64 1009.5
20260506105504 13 8 11.3 20.9 0.00 0.00 0.00 64 1009.5
20260506095004 13 0 8.0 22.5 0.00 0.00 0.00 64 1009.2
20260506094504 13 27 6.4 16.1 0.00 0.00 0.00 66 1009.1
20260506094004 13 35 8.0 32.2 0.00 0.00 0.00 66 1009.1
20260506093505 13 47 8.0 24.1 0.00 0.00 0.00 66 1009.1
20260506093005 13 354 9.7 19.3 0.00 0.00 0.00 66 1009.1
20260506092004 13 18 9.7 22.5 0.00 0.00 0.00 67 1009.1
20260506091504 13 32 9.7 20.9 0.00 0.00 0.00 66 1009.1
20260506091004 13 20 9.7 24.1 0.00 0.00 0.00 67 1009.0
20260506090004 13 61 8.0 22.5 0.00 0.00 0.00 68 1009.1